User: anonymous   Login
Location: Unspecified
(0.0000°N, 0.0000°E)
Time: 03:56:49
(UTC+01:00)
Language:

YAOGAN 3 - Orbit

View from above orbital plane
View from above orbital plane
View from above satellite
View from above satellite

Ground track
Ground track

The orbit data is extracted from the following two-line orbital elements,

1 32289U 07055A   17023.83910347  .00000308  00000-0  46783-4 0  9992
2 32289  97.9954  26.1738 0001777  79.5381 280.6035 14.80779271497371
Epoch (UTC): 23 January 2017 20:08:18
Eccentricity: 0.0001777
inclination: 97.9954°
perigee height: 625 km
apogee height: 628 km
right ascension of ascending node: 26.1738°
argument of perigee: 79.5381°
revolutions per day: 14.80779271
mean anomaly at epoch: 280.6035°
orbit number at epoch: 49737

The dashed part of the orbit path shows where the satellite is in the earth's shadow,  

DLR